owner,sensor,date,latitude,longitude,vertical_datum,direction_of_sea_water_velocity,sea_water_speed,upward_sea_water_velocity,qcFlag 
TABS,ioos:station:wmo:42051:1,2007-03-01T00:00:00Z,29.6350,-93.6417,2.0,312.6753033,28.23680577,-99999.0,'11111222,11111222,99999999' 
TABS,ioos:station:wmo:42051:1,2007-03-01T00:30:00Z,29.6350,-93.6417,2.0,313.6156144,26.92034547,-99999.0,'11111222,11111222,99999999' 
TABS,ioos:station:wmo:42051:1,2007-03-01T01:00:00Z,29.6350,-93.6417,2.0,309.2849379,25.20638213,-99999.0,'11111222,11111222,99999999' 
TABS,ioos:station:wmo:42051:1,2007-03-01T01:30:00Z,29.6350,-93.6417,2.0,303.9834948,26.56771349,-99999.0,'11111222,11111222,99999999' 
TABS,ioos:station:wmo:42051:1,2007-03-01T02:00:00Z,29.6350,-93.6417,2.0,309.4974275,26.39774612,-99999.0,'11111222,11111222,99999999' 
TABS,ioos:station:wmo:42051:1,2007-03-01T02:30:00Z,29.6350,-93.6417,2.0,304.7369969,24.44694255,-99999.0,'11111222,11111222,99999999' 
TABS,ioos:station:wmo:42051:1,2007-03-01T03:00:00Z,29.6350,-93.6417,2.0,308.6917414,28.31430734,-99999.0,'11111222,11111222,99999999' 
TABS,ioos:station:wmo:42051:1,2007-03-01T03:30:00Z,29.6350,-93.6417,2.0,308.5361224,29.58250327,-99999.0,'11111222,11111222,99999999' 
TABS,ioos:station:wmo:42051:1,2007-03-01T04:00:00Z,29.6350,-93.6417,2.0,304.1352347,30.72299627,-99999.0,'11111222,11111222,99999999' 
TABS,ioos:station:wmo:42051:1,2007-03-01T04:30:00Z,29.6350,-93.6417,2.0,300.0158649,27.04731595,-99999.0,'11111222,11111222,99999999' 
TABS,ioos:station:wmo:42051:1,2007-03-01T05:00:00Z,29.6350,-93.6417,2.0,299.8259784,27.28394766,-99999.0,'11111222,11111222,99999999' 
TABS,ioos:station:wmo:42051:1,2007-03-01T05:30:00Z,29.6350,-93.6417,2.0,294.5693753,24.26711767,-99999.0,'11111222,11111222,99999999' 
TABS,ioos:station:wmo:42051:1,2007-03-01T06:00:00Z,29.6350,-93.6417,2.0,282.7344002,22.41122933,-99999.0,'11111222,11111222,99999999' 
TABS,ioos:station:wmo:42051:1,2007-03-01T06:30:00Z,29.6350,-93.6417,2.0,278.2673537,21.90764478,-99999.0,'11111222,11111222,99999999' 
TABS,ioos:station:wmo:42051:1,2007-03-01T07:00:00Z,29.6350,-93.6417,2.0,267.3486768,24.21591419,-99999.0,'11111222,11111222,99999999' 
TABS,ioos:station:wmo:42051:1,2007-03-01T07:30:00Z,29.6350,-93.6417,2.0,266.3265081,22.1655318,-99999.0,'11111222,11111222,99999999' 
TABS,ioos:station:wmo:42051:1,2007-03-01T08:00:00Z,29.6350,-93.6417,2.0,274.1199299,24.08221958,-99999.0,'11111222,11111222,99999999' 
TABS,ioos:station:wmo:42051:1,2007-03-01T08:30:00Z,29.6350,-93.6417,2.0,272.7821908,19.16258072,-99999.0,'11111222,11111222,99999999' 
TABS,ioos:station:wmo:42051:1,2007-03-01T09:00:00Z,29.6350,-93.6417,2.0,265.8649174,19.97198037,-99999.0,'11111222,11111222,99999999' 
TABS,ioos:station:wmo:42051:1,2007-03-01T09:30:00Z,29.6350,-93.6417,2.0,250.2587917,23.03368837,-99999.0,'11111222,11111222,99999999' 
TABS,ioos:station:wmo:42051:1,2007-03-01T10:00:00Z,29.6350,-93.6417,2.0,240.2354284,25.72356507,-99999.0,'11111222,11111222,99999999' 
TABS,ioos:station:wmo:42051:1,2007-03-01T10:30:00Z,29.6350,-93.6417,2.0,242.4965839,17.75675928,-99999.0,'11111222,11111222,99999999' 
TABS,ioos:station:wmo:42051:1,2007-03-01T11:00:00Z,29.6350,-93.6417,2.0,236.6733673,17.47340837,-99999.0,'11111222,11111222,99999999' 
TABS,ioos:station:wmo:42051:1,2007-03-01T11:30:00Z,29.6350,-93.6417,2.0,237.7979986,15.16229864,-99999.0,'11111222,11111222,99999999' 
TABS,ioos:station:wmo:42051:1,2007-03-01T12:00:00Z,29.6350,-93.6417,2.0,237.5458018,17.74066797,-99999.0,'11111222,11111222,99999999' 
TABS,ioos:station:wmo:42051:1,2007-03-01T12:30:00Z,29.6350,-93.6417,2.0,234.4582182,17.68475332,-99999.0,'11111222,11111222,99999999' 
TABS,ioos:station:wmo:42051:1,2007-03-01T13:00:00Z,29.6350,-93.6417,2.0,241.2877981,20.29538125,-99999.0,'11111222,11111222,99999999' 
TABS,ioos:station:wmo:42051:1,2007-03-01T13:30:00Z,29.6350,-93.6417,2.0,246.1590701,20.03993263,-99999.0,'11111222,11111222,99999999' 
TABS,ioos:station:wmo:42051:1,2007-03-01T14:00:00Z,29.6350,-93.6417,2.0,249.9715131,17.4024165,-99999.0,'11111222,11111222,99999999' 
TABS,ioos:station:wmo:42051:1,2007-03-01T14:30:00Z,29.6350,-93.6417,2.0,252.0304814,17.5037853,-99999.0,'11111222,11111222,99999999' 
TABS,ioos:station:wmo:42051:1,2007-03-01T15:00:00Z,29.6350,-93.6417,2.0,253.6989271,15.28440382,-99999.0,'11111222,11111222,99999999' 
TABS,ioos:station:wmo:42051:1,2007-03-01T15:30:00Z,29.6350,-93.6417,2.0,244.9682436,16.70941351,-99999.0,'11111222,11111222,99999999' 
TABS,ioos:station:wmo:42051:1,2007-03-01T16:00:00Z,29.6350,-93.6417,2.0,246.8907916,16.76522592,-99999.0,'11111222,11111222,99999999' 
TABS,ioos:station:wmo:42051:1,2007-03-01T16:30:00Z,29.6350,-93.6417,2.0,241.8422022,17.05884228,-99999.0,'11111222,11111222,99999999' 
TABS,ioos:station:wmo:42051:1,2007-03-01T17:00:00Z,29.6350,-93.6417,2.0,242.8283095,16.90562037,-99999.0,'11111222,11111222,99999999' 
TABS,ioos:station:wmo:42051:1,2007-03-01T17:30:00Z,29.6350,-93.6417,2.0,245.6636937,14.48726682,-99999.0,'11111222,11111222,99999999' 
TABS,ioos:station:wmo:42051:1,2007-03-01T18:00:00Z,29.6350,-93.6417,2.0,240.174892,14.23548032,-99999.0,'11111222,11111222,99999999' 
TABS,ioos:station:wmo:42051:1,2007-03-01T18:30:00Z,29.6350,-93.6417,2.0,225.0185751,21.44654984,-99999.0,'11111222,11111222,99999999' 
TABS,ioos:station:wmo:42051:1,2007-03-01T19:00:00Z,29.6350,-93.6417,2.0,222.4769859,24.41884928,-99999.0,'11111222,11111222,99999999' 
TABS,ioos:station:wmo:42051:1,2007-03-01T19:30:00Z,29.6350,-93.6417,2.0,228.3832186,22.28442505,-99999.0,'11111222,11111222,99999999' 
TABS,ioos:station:wmo:42051:1,2007-03-01T20:00:00Z,29.6350,-93.6417,2.0,211.6474112,22.41303192,-99999.0,'11111222,11111222,99999999' 
TABS,ioos:station:wmo:42051:1,2007-03-01T20:30:00Z,29.6350,-93.6417,2.0,215.9813032,27.60731787,-99999.0,'11111222,11111222,99999999' 
TABS,ioos:station:wmo:42051:1,2007-03-01T21:00:00Z,29.6350,-93.6417,2.0,219.9283263,25.03766962,-99999.0,'11111222,11111222,99999999' 
TABS,ioos:station:wmo:42051:1,2007-03-01T21:30:00Z,29.6350,-93.6417,2.0,206.5490359,32.55267885,-99999.0,'11111222,11111222,99999999' 
TABS,ioos:station:wmo:42051:1,2007-03-01T22:00:00Z,29.6350,-93.6417,2.0,214.6227466,30.14917909,-99999.0,'11111222,11111222,99999999' 
TABS,ioos:station:wmo:42051:1,2007-03-01T22:30:00Z,29.6350,-93.6417,2.0,214.6420748,30.20482412,-99999.0,'11111222,11111222,99999999' 
TABS,ioos:station:wmo:42051:1,2007-03-01T23:00:00Z,29.6350,-93.6417,2.0,216.1644594,32.50246145,-99999.0,'11111222,11111222,99999999' 
TABS,ioos:station:wmo:42051:1,2007-03-01T23:30:00Z,29.6350,-93.6417,2.0,216.1638458,29.8762665,-99999.0,'11111222,11111222,99999999' 
TABS,ioos:station:wmo:42051:1,2007-03-02T00:00:00Z,29.6350,-93.6417,2.0,215.5527932,25.93484914,-99999.0,'11111222,11111222,99999999' 
TABS,ioos:station:wmo:42051:1,2007-03-02T00:30:00Z,29.6350,-93.6417,2.0,202.666162,21.77154565,-99999.0,'11111222,11111222,99999999' 
TABS,ioos:station:wmo:42051:1,2007-03-02T01:00:00Z,29.6350,-93.6417,2.0,194.6280306,26.05456774,-99999.0,'11111222,11111222,99999999' 
TABS,ioos:station:wmo:42051:1,2007-03-02T01:30:00Z,29.6350,-93.6417,2.0,199.8689889,28.80472531,-99999.0,'11111222,11111222,99999999' 
TABS,ioos:station:wmo:42051:1,2007-03-02T02:00:00Z,29.6350,-93.6417,2.0,198.1378293,26.85442235,-99999.0,'11111222,11111222,99999999' 
TABS,ioos:station:wmo:42051:1,2007-03-02T02:30:00Z,29.6350,-93.6417,2.0,212.0464129,29.40010884,-99999.0,'11111222,11111222,99999999' 
TABS,ioos:station:wmo:42051:1,2007-03-02T03:00:00Z,29.6350,-93.6417,2.0,213.9652901,28.26230175,-99999.0,'11111222,11111222,99999999' 
TABS,ioos:station:wmo:42051:1,2007-03-02T03:30:00Z,29.6350,-93.6417,2.0,223.0786063,24.89000603,-99999.0,'11111222,11111222,99999999' 
TABS,ioos:station:wmo:42051:1,2007-03-02T04:00:00Z,29.6350,-93.6417,2.0,221.3298246,22.42591581,-99999.0,'11111222,11111222,99999999' 
TABS,ioos:station:wmo:42051:1,2007-03-02T04:30:00Z,29.6350,-93.6417,2.0,216.2302852,23.83948405,-99999.0,'11111222,11111222,99999999' 
TABS,ioos:station:wmo:42051:1,2007-03-02T05:00:00Z,29.6350,-93.6417,2.0,216.2733844,20.18109264,-99999.0,'11111222,11111222,99999999' 
TABS,ioos:station:wmo:42051:1,2007-03-02T05:30:00Z,29.6350,-93.6417,2.0,215.9117751,20.45885872,-99999.0,'11111222,11111222,99999999' 
TABS,ioos:station:wmo:42051:1,2007-03-02T06:00:00Z,29.6350,-93.6417,2.0,222.9498282,22.7338888,-99999.0,'11111222,11111222,99999999' 
TABS,ioos:station:wmo:42051:1,2007-03-02T06:30:00Z,29.6350,-93.6417,2.0,226.1533441,25.63781777,-99999.0,'11111222,11111222,99999999' 
TABS,ioos:station:wmo:42051:1,2007-03-02T07:00:00Z,29.6350,-93.6417,2.0,241.2542728,20.33610828,-99999.0,'11111222,11111222,99999999' 
TABS,ioos:station:wmo:42051:1,2007-03-02T07:30:00Z,29.6350,-93.6417,2.0,235.8223808,20.22232677,-99999.0,'11111222,11111222,99999999' 
TABS,ioos:station:wmo:42051:1,2007-03-02T08:00:00Z,29.6350,-93.6417,2.0,234.6333969,19.81682366,-99999.0,'11111222,11111222,99999999' 
TABS,ioos:station:wmo:42051:1,2007-03-02T08:30:00Z,29.6350,-93.6417,2.0,245.469701,15.99350181,-99999.0,'11111222,11111222,99999999' 
TABS,ioos:station:wmo:42051:1,2007-03-02T09:00:00Z,29.6350,-93.6417,2.0,240.8540918,15.29680032,-99999.0,'11111222,11111222,99999999' 
TABS,ioos:station:wmo:42051:1,2007-03-02T09:30:00Z,29.6350,-93.6417,2.0,238.6108784,16.64611066,-99999.0,'11111222,11111222,99999999' 
TABS,ioos:station:wmo:42051:1,2007-03-02T10:00:00Z,29.6350,-93.6417,2.0,248.9237332,13.93198119,-99999.0,'11111222,11111222,99999999' 
TABS,ioos:station:wmo:42051:1,2007-03-02T10:30:00Z,29.6350,-93.6417,2.0,258.7907948,11.11195752,-99999.0,'11111222,11111222,99999999' 
TABS,ioos:station:wmo:42051:1,2007-03-02T11:00:00Z,29.6350,-93.6417,2.0,274.8878,11.15054259,-99999.0,'11111222,11111222,99999999' 
TABS,ioos:station:wmo:42051:1,2007-03-02T11:30:00Z,29.6350,-93.6417,2.0,255.5701568,10.95559218,-99999.0,'11111222,11111222,99999999' 
TABS,ioos:station:wmo:42051:1,2007-03-02T12:00:00Z,29.6350,-93.6417,2.0,258.4779384,10.61387771,-99999.0,'11111222,11111222,99999999' 
TABS,ioos:station:wmo:42051:1,2007-03-02T12:30:00Z,29.6350,-93.6417,2.0,269.4319393,15.14074305,-99999.0,'11111222,11111222,99999999' 
TABS,ioos:station:wmo:42051:1,2007-03-02T13:00:00Z,29.6350,-93.6417,2.0,271.3634915,15.97452034,-99999.0,'11111222,11111222,99999999' 
TABS,ioos:station:wmo:42051:1,2007-03-02T13:30:00Z,29.6350,-93.6417,2.0,270.489558,17.57064028,-99999.0,'11111222,11111222,99999999' 
TABS,ioos:station:wmo:42051:1,2007-03-02T14:00:00Z,29.6350,-93.6417,2.0,283.6212073,16.39098838,-99999.0,'11111222,11111222,99999999' 
TABS,ioos:station:wmo:42051:1,2007-03-02T14:30:00Z,29.6350,-93.6417,2.0,295.9591295,17.75090139,-99999.0,'11111222,11111222,99999999' 
TABS,ioos:station:wmo:42051:1,2007-03-02T15:00:00Z,29.6350,-93.6417,2.0,297.716503,18.25447069,-99999.0,'11111222,11111222,99999999' 
TABS,ioos:station:wmo:42051:1,2007-03-02T15:30:00Z,29.6350,-93.6417,2.0,306.1451653,18.64949329,-99999.0,'11111222,11111222,99999999' 
TABS,ioos:station:wmo:42051:1,2007-03-02T16:00:00Z,29.6350,-93.6417,2.0,304.8742896,20.67254218,-99999.0,'11111222,11111222,99999999' 
TABS,ioos:station:wmo:42051:1,2007-03-02T16:30:00Z,29.6350,-93.6417,2.0,300.8201348,21.15784724,-99999.0,'11111222,11111222,99999999' 
TABS,ioos:station:wmo:42051:1,2007-03-02T17:00:00Z,29.6350,-93.6417,2.0,305.0309877,19.44201636,-99999.0,'11111222,11111222,99999999' 
TABS,ioos:station:wmo:42051:1,2007-03-02T17:30:00Z,29.6350,-93.6417,2.0,308.2027484,17.80281438,-99999.0,'11111222,11111222,99999999' 
TABS,ioos:station:wmo:42051:1,2007-03-02T18:00:00Z,29.6350,-93.6417,2.0,309.859716,14.99440562,-99999.0,'11111222,11111222,99999999' 
TABS,ioos:station:wmo:42051:1,2007-03-02T18:30:00Z,29.6350,-93.6417,2.0,296.1626016,13.35860023,-99999.0,'11111222,11111222,99999999' 
TABS,ioos:station:wmo:42051:1,2007-03-02T19:00:00Z,29.6350,-93.6417,2.0,279.5914613,15.36476814,-99999.0,'11111222,11111222,99999999' 
TABS,ioos:station:wmo:42051:1,2007-03-02T19:30:00Z,29.6350,-93.6417,2.0,281.4321748,16.59930721,-99999.0,'11111222,11111222,99999999' 
TABS,ioos:station:wmo:42051:1,2007-03-02T20:00:00Z,29.6350,-93.6417,2.0,254.5452701,15.38632185,-99999.0,'11111222,11111222,99999999' 
TABS,ioos:station:wmo:42051:1,2007-03-02T20:30:00Z,29.6350,-93.6417,2.0,266.4074199,15.80104427,-99999.0,'11111222,11111222,99999999' 
TABS,ioos:station:wmo:42051:1,2007-03-02T21:00:00Z,29.6350,-93.6417,2.0,277.2077222,10.36187242,-99999.0,'11111222,11111222,99999999' 
TABS,ioos:station:wmo:42051:1,2007-03-02T21:30:00Z,29.6350,-93.6417,2.0,240.0808812,10.62610465,-99999.0,'11111222,11111222,99999999' 
TABS,ioos:station:wmo:42051:1,2007-03-02T22:00:00Z,29.6350,-93.6417,2.0,219.3761689,11.11263245,-99999.0,'11111222,11111222,99999999' 
TABS,ioos:station:wmo:42051:1,2007-03-02T22:30:00Z,29.6350,-93.6417,2.0,232.7431018,15.11434418,-99999.0,'11111222,11111222,99999999' 
TABS,ioos:station:wmo:42051:1,2007-03-02T23:00:00Z,29.6350,-93.6417,2.0,241.0020384,14.64602676,-99999.0,'11111222,11111222,99999999' 
TABS,ioos:station:wmo:42051:1,2007-03-02T23:30:00Z,29.6350,-93.6417,2.0,236.0418556,7.715963971,-99999.0,'11133222,11111222,99999999' 
TABS,ioos:station:wmo:42051:1,2007-03-03T00:00:00Z,29.6350,-93.6417,2.0,239.9936118,6.258857723,-99999.0,'11133222,11111222,99999999' 
TABS,ioos:station:wmo:42051:1,2007-03-03T00:30:00Z,29.6350,-93.6417,2.0,231.3398612,8.772280205,-99999.0,'11133222,11111222,99999999' 
TABS,ioos:station:wmo:42051:1,2007-03-03T01:00:00Z,29.6350,-93.6417,2.0,247.5142298,9.177717581,-99999.0,'11133222,11111222,99999999' 
TABS,ioos:station:wmo:42051:1,2007-03-03T01:30:00Z,29.6350,-93.6417,2.0,277.989729,10.93614649,-99999.0,'11111222,11111222,99999999' 
TABS,ioos:station:wmo:42051:1,2007-03-03T02:00:00Z,29.6350,-93.6417,2.0,276.8739633,9.60906343,-99999.0,'11133222,11111222,99999999' 
TABS,ioos:station:wmo:42051:1,2007-03-03T02:30:00Z,29.6350,-93.6417,2.0,247.578223,3.775407263,-99999.0,'11133222,11111222,99999999' 
TABS,ioos:station:wmo:42051:1,2007-03-03T03:00:00Z,29.6350,-93.6417,2.0,254.3004961,5.43266049,-99999.0,'11133222,11111222,99999999' 
TABS,ioos:station:wmo:42051:1,2007-03-03T03:30:00Z,29.6350,-93.6417,2.0,293.2481211,7.65122866,-99999.0,'11133222,11111222,99999999' 
TABS,ioos:station:wmo:42051:1,2007-03-03T04:00:00Z,29.6350,-93.6417,2.0,272.5987647,6.176350055,-99999.0,'11133222,11111222,99999999' 
TABS,ioos:station:wmo:42051:1,2007-03-03T04:30:00Z,29.6350,-93.6417,2.0,234.0556391,6.064791835,-99999.0,'11133222,11111222,99999999' 
TABS,ioos:station:wmo:42051:1,2007-03-03T05:00:00Z,29.6350,-93.6417,2.0,226.2532183,6.464503074,-99999.0,'11133222,11111222,99999999' 
TABS,ioos:station:wmo:42051:1,2007-03-03T05:30:00Z,29.6350,-93.6417,2.0,248.9859091,8.644934933,-99999.0,'11133222,11111222,99999999' 
TABS,ioos:station:wmo:42051:1,2007-03-03T06:00:00Z,29.6350,-93.6417,2.0,241.7947307,8.907670852,-99999.0,'11133222,11111222,99999999' 
TABS,ioos:station:wmo:42051:1,2007-03-03T06:30:00Z,29.6350,-93.6417,2.0,237.7084565,11.47461982,-99999.0,'11111222,11111222,99999999' 
TABS,ioos:station:wmo:42051:1,2007-03-03T17:00:00Z,29.6350,-93.6417,2.0,289.4264098,27.24077275,-99999.0,'11111222,11111222,99999999' 
TABS,ioos:station:wmo:42051:1,2007-03-03T17:30:00Z,29.6350,-93.6417,2.0,289.342985,26.74990093,-99999.0,'11111222,11111222,99999999' 
TABS,ioos:station:wmo:42051:1,2007-03-03T18:00:00Z,29.6350,-93.6417,2.0,282.310987,27.6252095,-99999.0,'11111222,11111222,99999999' 
TABS,ioos:station:wmo:42051:1,2007-03-03T18:30:00Z,29.6350,-93.6417,2.0,284.9106998,29.73105111,-99999.0,'11111222,11111222,99999999' 
TABS,ioos:station:wmo:42051:1,2007-03-03T19:00:00Z,29.6350,-93.6417,2.0,286.3228363,26.50841564,-99999.0,'11111222,11111222,99999999' 
TABS,ioos:station:wmo:42051:1,2007-03-03T19:30:00Z,29.6350,-93.6417,2.0,282.6660745,30.4202449,-99999.0,'11111222,11111222,99999999' 
TABS,ioos:station:wmo:42051:1,2007-03-03T20:00:00Z,29.6350,-93.6417,2.0,281.3005121,34.34581925,-99999.0,'11111222,11111222,99999999' 
TABS,ioos:station:wmo:42051:1,2007-03-03T20:30:00Z,29.6350,-93.6417,2.0,286.9745839,31.13641758,-99999.0,'11111222,11111222,99999999' 
TABS,ioos:station:wmo:42051:1,2007-03-03T21:00:00Z,29.6350,-93.6417,2.0,290.3020421,28.73505525,-99999.0,'11111222,11111222,99999999' 
TABS,ioos:station:wmo:42051:1,2007-03-03T21:30:00Z,29.6350,-93.6417,2.0,287.2138398,23.58646434,-99999.0,'11111222,11111222,99999999' 
TABS,ioos:station:wmo:42051:1,2007-03-03T22:00:00Z,29.6350,-93.6417,2.0,291.1683599,20.49273286,-99999.0,'11111222,11111222,99999999' 
TABS,ioos:station:wmo:42051:1,2007-03-03T22:30:00Z,29.6350,-93.6417,2.0,289.835608,14.23450034,-99999.0,'11111222,11111222,99999999' 
TABS,ioos:station:wmo:42051:1,2007-03-03T23:00:00Z,29.6350,-93.6417,2.0,256.3865022,12.15136618,-99999.0,'11111222,11111222,99999999' 
TABS,ioos:station:wmo:42051:1,2007-03-03T23:30:00Z,29.6350,-93.6417,2.0,240.6654178,11.9411306,-99999.0,'11111222,11111222,99999999' 
TABS,ioos:station:wmo:42051:1,2007-03-04T00:00:00Z,29.6350,-93.6417,2.0,228.0890534,11.67716147,-99999.0,'11111222,11111222,99999999' 
TABS,ioos:station:wmo:42051:1,2007-03-04T00:30:00Z,29.6350,-93.6417,2.0,204.2915673,10.59835836,-99999.0,'11111222,11111222,99999999' 
TABS,ioos:station:wmo:42051:1,2007-03-04T01:00:00Z,29.6350,-93.6417,2.0,205.2269535,11.68440414,-99999.0,'11111222,11111222,99999999' 
TABS,ioos:station:wmo:42051:1,2007-03-04T01:30:00Z,29.6350,-93.6417,2.0,194.7230426,12.94505697,-99999.0,'11111222,11111222,99999999' 
TABS,ioos:station:wmo:42051:1,2007-03-04T02:00:00Z,29.6350,-93.6417,2.0,189.3369706,10.53964421,-99999.0,'11111222,11111222,99999999' 
TABS,ioos:station:wmo:42051:1,2007-03-04T02:30:00Z,29.6350,-93.6417,2.0,207.138433,10.7202472,-99999.0,'11111222,11111222,99999999' 
TABS,ioos:station:wmo:42051:1,2007-03-04T03:00:00Z,29.6350,-93.6417,2.0,190.230525,9.683971293,-99999.0,'11133222,11111222,99999999' 
TABS,ioos:station:wmo:42051:1,2007-03-04T03:30:00Z,29.6350,-93.6417,2.0,192.9865615,10.99113279,-99999.0,'11111222,11111222,99999999' 
TABS,ioos:station:wmo:42051:1,2007-03-04T04:00:00Z,29.6350,-93.6417,2.0,176.7671196,13.83200998,-99999.0,'11111222,11111222,99999999' 
TABS,ioos:station:wmo:42051:1,2007-03-04T04:30:00Z,29.6350,-93.6417,2.0,178.0264055,12.77757802,-99999.0,'11111222,11111222,99999999' 
TABS,ioos:station:wmo:42051:1,2007-03-04T05:00:00Z,29.6350,-93.6417,2.0,170.4803704,18.13979327,-99999.0,'11111222,11111222,99999999' 
TABS,ioos:station:wmo:42051:1,2007-03-04T05:30:00Z,29.6350,-93.6417,2.0,173.4472502,23.83570431,-99999.0,'11111222,11111222,99999999' 
TABS,ioos:station:wmo:42051:1,2007-03-04T06:00:00Z,29.6350,-93.6417,2.0,175.2387572,18.31318924,-99999.0,'11111222,11111222,99999999' 
TABS,ioos:station:wmo:42051:1,2007-03-04T06:30:00Z,29.6350,-93.6417,2.0,187.1280434,21.83879575,-99999.0,'11111222,11111222,99999999' 
TABS,ioos:station:wmo:42051:1,2007-03-04T07:00:00Z,29.6350,-93.6417,2.0,191.9905965,20.79370097,-99999.0,'11111222,11111222,99999999' 
TABS,ioos:station:wmo:42051:1,2007-03-04T07:30:00Z,29.6350,-93.6417,2.0,198.9243897,15.91,-99999.0,'11111222,11111222,99999999' 
TABS,ioos:station:wmo:42051:1,2007-03-04T08:00:00Z,29.6350,-93.6417,2.0,207.7446137,11.728427,-99999.0,'11111222,11111222,99999999' 
TABS,ioos:station:wmo:42051:1,2007-03-04T08:30:00Z,29.6350,-93.6417,2.0,202.3132107,9.350133689,-99999.0,'11133222,11111222,99999999' 
TABS,ioos:station:wmo:42051:1,2007-03-04T09:00:00Z,29.6350,-93.6417,2.0,195.6500087,8.266468412,-99999.0,'11133222,11111222,99999999' 
TABS,ioos:station:wmo:42051:1,2007-03-04T09:30:00Z,29.6350,-93.6417,2.0,191.5273744,9.807838702,-99999.0,'11133222,11111222,99999999' 
TABS,ioos:station:wmo:42051:1,2007-03-04T10:00:00Z,29.6350,-93.6417,2.0,200.7470399,6.662019213,-99999.0,'11133222,11111222,99999999' 
TABS,ioos:station:wmo:42051:1,2007-03-04T10:30:00Z,29.6350,-93.6417,2.0,195.2228459,7.845285208,-99999.0,'11133222,11111222,99999999' 
TABS,ioos:station:wmo:42051:1,2007-03-04T11:00:00Z,29.6350,-93.6417,2.0,181.241975,7.841842896,-99999.0,'11133222,11111222,99999999' 
TABS,ioos:station:wmo:42051:1,2007-03-04T11:30:00Z,29.6350,-93.6417,2.0,172.0478051,7.734371338,-99999.0,'11133222,11111222,99999999' 
TABS,ioos:station:wmo:42051:1,2007-03-04T12:00:00Z,29.6350,-93.6417,2.0,166.5672212,5.294846551,-99999.0,'11133222,11111222,99999999' 
TABS,ioos:station:wmo:42051:1,2007-03-04T12:30:00Z,29.6350,-93.6417,2.0,170.4622737,5.00924146,-99999.0,'11133222,11111222,99999999' 
TABS,ioos:station:wmo:42051:1,2007-03-04T13:00:00Z,29.6350,-93.6417,2.0,187.3878655,5.132611421,-99999.0,'11133222,11111222,99999999' 
TABS,ioos:station:wmo:42051:1,2007-03-04T13:30:00Z,29.6350,-93.6417,2.0,173.5338726,4.52880779,-99999.0,'11133222,11111222,99999999' 
TABS,ioos:station:wmo:42051:1,2007-03-04T14:00:00Z,29.6350,-93.6417,2.0,185.644942,6.099581953,-99999.0,'11133222,11111222,99999999' 
TABS,ioos:station:wmo:42051:1,2007-03-04T14:30:00Z,29.6350,-93.6417,2.0,201.8654048,4.96735342,-99999.0,'11133222,11111222,99999999' 
TABS,ioos:station:wmo:42051:1,2007-03-04T15:00:00Z,29.6350,-93.6417,2.0,208.3441718,5.32888356,-99999.0,'11133222,11111222,99999999' 
TABS,ioos:station:wmo:42051:1,2007-03-04T15:30:00Z,29.6350,-93.6417,2.0,206.6898781,4.096486299,-99999.0,'11133222,11111222,99999999' 
TABS,ioos:station:wmo:42051:1,2007-03-04T16:00:00Z,29.6350,-93.6417,2.0,230.6089456,4.774620404,-99999.0,'11133222,11111222,99999999' 
TABS,ioos:station:wmo:42051:1,2007-03-04T16:30:00Z,29.6350,-93.6417,2.0,227.3341853,2.951084546,-99999.0,'11133222,11111222,99999999' 
TABS,ioos:station:wmo:42051:1,2007-03-04T17:00:00Z,29.6350,-93.6417,2.0,274.1205332,2.366114959,-99999.0,'11133222,11111222,99999999' 
TABS,ioos:station:wmo:42051:1,2007-03-04T17:30:00Z,29.6350,-93.6417,2.0,208.9000092,2.524381112,-99999.0,'11133222,11111222,99999999' 
TABS,ioos:station:wmo:42051:1,2007-03-04T18:00:00Z,29.6350,-93.6417,2.0,271.4325138,0.800249961,-99999.0,'11133222,11111222,99999999' 
TABS,ioos:station:wmo:42051:1,2007-03-04T18:30:00Z,29.6350,-93.6417,2.0,239.5264721,3.805693104,-99999.0,'11133222,11111222,99999999' 
TABS,ioos:station:wmo:42051:1,2007-03-04T19:00:00Z,29.6350,-93.6417,2.0,265.692557,4.793537316,-99999.0,'11133222,11111222,99999999' 
TABS,ioos:station:wmo:42051:1,2007-03-04T19:30:00Z,29.6350,-93.6417,2.0,272.8139689,4.685648301,-99999.0,'11133222,11111222,99999999' 
TABS,ioos:station:wmo:42051:1,2007-03-04T20:00:00Z,29.6350,-93.6417,2.0,251.1193794,4.882704169,-99999.0,'11133222,11111222,99999999' 
TABS,ioos:station:wmo:42051:1,2007-03-04T20:30:00Z,29.6350,-93.6417,2.0,226.584535,3.579329546,-99999.0,'11133222,11111222,99999999' 
TABS,ioos:station:wmo:42051:1,2007-03-04T21:00:00Z,29.6350,-93.6417,2.0,232.9990305,3.506009127,-99999.0,'11133222,11111222,99999999' 
TABS,ioos:station:wmo:42051:1,2007-03-04T21:30:00Z,29.6350,-93.6417,2.0,245.2723225,1.673439572,-99999.0,'11133222,11111222,99999999' 
TABS,ioos:station:wmo:42051:1,2007-03-04T22:00:00Z,29.6350,-93.6417,2.0,216.2535425,0.74404301,-99999.0,'11133222,11111222,99999999' 
TABS,ioos:station:wmo:42051:1,2007-03-04T22:30:00Z,29.6350,-93.6417,2.0,209.1911781,2.439877046,-99999.0,'11133222,11111222,99999999' 
TABS,ioos:station:wmo:42051:1,2007-03-04T23:00:00Z,29.6350,-93.6417,2.0,221.0203112,3.2605521,-99999.0,'11133222,11111222,99999999' 
TABS,ioos:station:wmo:42051:1,2007-03-04T23:30:00Z,29.6350,-93.6417,2.0,187.2058297,4.384632254,-99999.0,'11133222,11111222,99999999' 
TABS,ioos:station:wmo:42051:1,2007-03-05T00:00:00Z,29.6350,-93.6417,2.0,174.4568104,4.762268367,-99999.0,'11133222,11111222,99999999' 
TABS,ioos:station:wmo:42051:1,2007-03-05T00:30:00Z,29.6350,-93.6417,2.0,175.6010945,3.129217154,-99999.0,'11133222,11111222,99999999' 
TABS,ioos:station:wmo:42051:1,2007-03-05T01:00:00Z,29.6350,-93.6417,2.0,145.4017735,5.600401771,-99999.0,'11133222,11111222,99999999' 
TABS,ioos:station:wmo:42051:1,2007-03-05T01:30:00Z,29.6350,-93.6417,2.0,119.9679482,7.006775293,-99999.0,'11133222,11111222,99999999' 
TABS,ioos:station:wmo:42051:1,2007-03-05T02:00:00Z,29.6350,-93.6417,2.0,115.7765666,9.750179486,-99999.0,'11133222,11111222,99999999' 